AirNav   Air Wisconsin pilot careers
 
 597 users online  

C27 Manchester Municipal Airport
Manchester, Iowa, USA

GOING TO MANCHESTER?


FAA INFORMATION EFFECTIVE 16 AUGUST 2018

Location

FAA Identifier: C27
Lat/Long: 42-29-25.7850N / 091-29-52.3450W
42-29.429750N / 091-29.872417W
42.4904958 / -91.4978736
(estimated)
Elevation: 987 ft. / 300.8 m (surveyed)
Variation: 02E (1985)
From city: 2 miles W of MANCHESTER, IA
Time zone: UTC -5 (UTC -6 during Standard Time)
Zip code: 52057

Airport Operations

Airport use: Open to the public
Activation date: 12/1963
Control tower: no
ARTCC: CHICAGO CENTER
FSS: FORT DODGE FLIGHT SERVICE STATION
NOTAMs facility: FOD (NOTAM-D service available)
Attendance: ON CALL
Wind indicator: lighted
Segmented circle: no
Beacon: white-green (lighted land airport)
Operates sunset to sunrise.

Airport Communications

CTAF: 122.9

Nearby radio navigation aids

VOR radial/distance  VOR name  Freq  Var
DBQr275/35.3DUBUQUE VORTAC115.8004E
CIDr014/38.4CEDAR RAPIDS VOR/DME114.1005E

 
NDB name  Hdg/Dist  Freq  Var  ID
WAPSIE084/20.220600EIIB .. .. -...

Airport Services

Fuel available: 100LL
Parking: tiedowns
Airframe service: NONE
Powerplant service: NONE

Runway Information

Runway 18/36

Dimensions: 3465 x 50 ft. / 1056 x 15 m
EXTENDED 190' RWY 18 END
Surface: asphalt, in good condition
Runway edge lights: low intensity
RUNWAY 18  RUNWAY 36
Latitude: 42-29.715167N42-29.144333N
Longitude: 091-29.873500W091-29.871333W
Elevation: 948.0 ft.948.0 ft.
Traffic pattern: leftleft
Displaced threshold: no305 ft.
Markings: basic, in good conditionbasic, in good condition
Obstructions: 20 ft. tree, 1033 ft. from runway, 63 ft. right of centerline, 41:1 slope to clear28 ft. bldg, 295 ft. from runway, 95 ft. right of centerline, 3:1 slope to clear
RWY 36 APCH SLOPE 21:1 TO DSPLCD THLD.

Airport Ownership and Management from official FAA records

Ownership: Publicly-owned
Owner: CITY OF MANCHESTER
208 E MAIN STREET
MANCHESTER, IA 52057
Phone 563-927-3636
Manager: TIM VICK
208 E MAIN STREET
MANCHESTER, IA 52057
Phone 563-927-3636
563-920-0867 CELL OR 563-927-3355 POLICE.

Airport Operational Statistics

Aircraft based on the field: 19
Single engine airplanes: 13
Helicopters: 1
Ultralights: 5
    
Aircraft operations: avg 21/week *
61% transient general aviation
39% local general aviation
* for 12-month period ending 31 July 2017

Additional Remarks

ULTRALIGHT ACTIVITY IN VICINITY OF ARPT.
DEER ON & INVOF ARPT.

Instrument Procedures

There are no published instrument procedures at C27.

Some nearby airports with instrument procedures:

KIIB - Independence Municipal Airport (20 nm W)
KMXO - Monticello Regional Airport (22 nm SE)
KOLZ - Oelwein Municipal Airport (24 nm NW)
KVTI - Vinton Veterans Memorial Airpark (29 nm SW)
3Y2 - George L Scott Municipal Airport (32 nm NW)
 
Loc | Ops | Rwys | IFR | FBO | Links
Com | Nav | Svcs | Stats | Notes


 
Area around C27 (Manchester Municipal Airport)
 
Road maps at: MapQuest Bing Google
 
Aerial photo
WARNING: Photo may not be current or correct
Aerial photo of C27 (Manchester Municipal Airport)
Do you have a better or more recent aerial photo of Manchester Municipal Airport that you would like to share? If so, please send us your photo.

 
Sectional chart

 
Airport distance calculator
Flying to Manchester Municipal Airport? Find the distance to fly.

From to C27

Sunrise and sunset
Times for 20-Aug-2018
 Local
(UTC-5)
 Zulu
(UTC)
Morning civil twilight05:4910:49
Sunrise06:1911:19
Sunset19:5900:59
Evening civil twilight20:2901:29

Current date and time
Zulu (UTC)  21-Aug-2018 04:28:20
Local (UTC-5)  20-Aug-2018 23:28:20
 
METAR
KIIB 
20nm W 
210415Z AUTO 36005KT 10SM OVC080 20/19 A2988 RMK AO2 T02040186
KMXO 
22nm SE 
210415Z AUTO VRB06G11KT 10SM 19/18 A2982 RMK AO2
KOLZ 
23nm NW 
210415Z AUTO 01007KT 350V050 10SM FEW008 SCT060 BKN075 19/19 A2990 RMK AO2
KVTI 
29nm SW 
210415Z AUTO 35007KT 10SM SCT085 22/19 A2987 RMK AO2 T02160185
KDBQ 
36nm E 
210408Z AUTO 01010KT 9SM OVC016 18/17 A2983 RMK AO2 T01830167
KPDC 
36nm NE 
210415Z AUTO 35003KT 10SM SCT026 BKN075 OVC090 20/16 A2987 RMK AO2 T01950160
KCID 
38nm S 
210352Z 02013KT 8SM BKN011 BKN110 19/18 A2982 RMK AO2 RAB32E44 SLP092 P0000 T01890183
KALO 
40nm W 
210410Z AUTO 01011KT 7SM BKN027 BKN048 18/18 A2989 RMK AO2 T01830178
TAF
KDBQ 
36nm E 
202203Z 2022/2118 04008KT 4SM BR VCTS BKN008 OVC015CB TEMPO 2022/2024 1SM +TSRA BR BKN012CB FM210000 04009KT 6SM BR OVC015 FM210500 35010KT 3SM BR SCT009
KCID 
38nm S 
210212Z 2102/2124 02015G26KT 4SM SHRA BR BKN010 FM210300 03010KT P6SM VCSH SCT008 BKN015 FM211100 35012KT P6SM BKN030 FM211600 34013G20KT P6SM SCT020 BKN035
KALO 
40nm W 
201738Z 2018/2118 07012G19KT P6SM VCSH OVC060 TEMPO 2019/2023 4SM -TSRA SCT025 OVC030CB FM210000 02015KT P6SM VCSH OVC025 FM210700 35012KT 5SM BR OVC005
NOTAMs
Click for the latest NOTAMs
NOTAMs are issued by the DoD/FAA and will open in a separate window not controlled by AirNav.

 

 
 

FBO, Fuel Providers, and Aircraft Ground Support

  
 Business Name 
 
 Contact 
 
 Services / Description 
 
Fuel Prices
 
Comments
  
Manchester Municipal Airport 563-927-3636
no information available

If you are affiliated with Manchester Municipal Airport and would like to show here your services, contact info, web link, logo, and more, click here
100LL
SS $4.58 
 Updated 06-Aug-2018
 
   write
SS=Self service
Update Fuel Prices
 

Would you like to see your business listed on this page?

 If your business provides an interesting product or service to pilots, flight crews, aircraft, or users of the Manchester Municipal Airport, you should consider listing it here.  To start the listing process, click on the button below
 
Add a business
 

Other Pages about Manchester Municipal Airport

www.manchester-ia.org/index.asp?Type=B_BASIC&SEC={E5D83828-A509-4E02-AAD5-ECE7F706B512}
Page from the Iowa Airport Directory
 
Update a link
 
Copyright © AirNav, LLC. All rights reserved. Privacy Policy  Contact